Year,Month,Day,Hour,Minute,Value (Times are PST for temperature in C)
2016,07,26,00,00,15.00
2016,07,26,00,01,15.00
2016,07,26,00,02,15.00
2016,07,26,00,03,15.00
2016,07,26,00,04,15.00
2016,07,26,00,05,15.00
2016,07,26,00,06,15.00
2016,07,26,00,07,15.00
2016,07,26,00,08,15.00
2016,07,26,00,09,15.00
2016,07,26,00,10,15.00
2016,07,26,00,11,15.00
2016,07,26,00,12,15.00
2016,07,26,00,13,15.00
2016,07,26,00,14,15.00
2016,07,26,00,15,15.00
2016,07,26,00,16,15.00
2016,07,26,00,17,15.00
2016,07,26,00,18,15.00
2016,07,26,00,19,15.00
2016,07,26,00,20,15.00
2016,07,26,00,21,15.00
2016,07,26,00,22,15.00
2016,07,26,00,23,15.00
2016,07,26,00,24,15.00
2016,07,26,00,25,15.00
2016,07,26,00,26,15.00
2016,07,26,00,27,15.00
2016,07,26,00,28,15.00
2016,07,26,00,29,15.00
2016,07,26,00,30,15.00
2016,07,26,00,31,15.00
2016,07,26,00,32,15.00
2016,07,26,00,33,15.00
2016,07,26,00,34,15.00
2016,07,26,00,35,15.00
2016,07,26,00,36,15.00
2016,07,26,00,37,15.00
2016,07,26,00,38,15.00
2016,07,26,00,39,15.00
2016,07,26,00,40,15.00
2016,07,26,00,41,15.00
2016,07,26,00,42,15.00
2016,07,26,00,43,15.00
2016,07,26,00,44,15.00
2016,07,26,00,45,15.00
2016,07,26,00,46,15.00
2016,07,26,00,47,15.00
2016,07,26,00,48,15.00
2016,07,26,00,49,15.00
2016,07,26,00,50,15.00
2016,07,26,00,51,15.00
2016,07,26,00,52,15.00
2016,07,26,00,53,15.00
2016,07,26,00,54,15.00
2016,07,26,00,55,15.00
2016,07,26,00,56,15.00
2016,07,26,00,57,15.00
2016,07,26,00,58,15.00
2016,07,26,00,59,15.00
2016,07,26,01,00,15.00
2016,07,26,01,01,15.00
2016,07,26,01,02,15.00
2016,07,26,01,03,15.00
2016,07,26,01,04,15.00
2016,07,26,01,05,15.00
2016,07,26,01,06,15.00
2016,07,26,01,07,15.00
2016,07,26,01,08,15.00
2016,07,26,01,09,15.00
2016,07,26,01,10,15.00
2016,07,26,01,11,15.00
2016,07,26,01,12,15.00
2016,07,26,01,13,15.00
2016,07,26,01,14,15.00
2016,07,26,01,15,14.90
2016,07,26,01,16,14.90
2016,07,26,01,17,14.90
2016,07,26,01,18,14.90
2016,07,26,01,19,14.90
2016,07,26,01,20,14.90
2016,07,26,01,21,14.90
2016,07,26,01,22,14.90
2016,07,26,01,23,14.90
2016,07,26,01,24,14.90
2016,07,26,01,25,14.90
2016,07,26,01,26,14.90
2016,07,26,01,27,14.80
2016,07,26,01,28,14.80
2016,07,26,01,29,14.90
2016,07,26,01,30,14.80
2016,07,26,01,31,14.80
2016,07,26,01,32,14.80
2016,07,26,01,33,14.80
2016,07,26,01,34,14.80
2016,07,26,01,35,14.80
2016,07,26,01,36,14.80
2016,07,26,01,37,14.80
2016,07,26,01,38,14.80
2016,07,26,01,39,14.80
2016,07,26,01,40,14.80
2016,07,26,01,41,14.80
2016,07,26,01,42,14.90
2016,07,26,01,43,14.90
2016,07,26,01,44,14.90
2016,07,26,01,45,14.90
2016,07,26,01,46,14.90
2016,07,26,01,47,14.90
2016,07,26,01,48,14.90
2016,07,26,01,49,14.90
2016,07,26,01,50,14.90
2016,07,26,01,51,14.90
2016,07,26,01,52,14.90
2016,07,26,01,53,14.90
2016,07,26,01,54,14.90
2016,07,26,01,55,14.90
2016,07,26,01,56,14.90
2016,07,26,01,57,14.90
2016,07,26,01,58,14.90
2016,07,26,01,59,14.90
2016,07,26,02,00,14.90
2016,07,26,02,01,14.90
2016,07,26,02,02,14.90
2016,07,26,02,03,14.90
2016,07,26,02,04,14.90
2016,07,26,02,05,14.90
2016,07,26,02,06,14.90
2016,07,26,02,07,14.90
2016,07,26,02,08,14.90
2016,07,26,02,09,14.90
2016,07,26,02,10,14.90
2016,07,26,02,11,14.90
2016,07,26,02,12,14.90
2016,07,26,02,13,14.90
2016,07,26,02,14,14.90
2016,07,26,02,15,14.90
2016,07,26,02,16,14.90
2016,07,26,02,17,14.90
2016,07,26,02,18,14.90
2016,07,26,02,19,14.90
2016,07,26,02,20,14.90
2016,07,26,02,21,14.90
2016,07,26,02,22,14.90
2016,07,26,02,23,14.90
2016,07,26,02,24,14.90
2016,07,26,02,25,14.90
2016,07,26,02,26,14.90
2016,07,26,02,27,14.90
2016,07,26,02,28,14.90
2016,07,26,02,29,14.90
2016,07,26,02,30,14.90
2016,07,26,02,31,14.90
2016,07,26,02,32,14.90
2016,07,26,02,33,14.90
2016,07,26,02,34,14.90
2016,07,26,02,35,14.90
2016,07,26,02,36,14.90
2016,07,26,02,37,14.90
2016,07,26,02,38,14.90
2016,07,26,02,39,14.80
2016,07,26,02,40,14.80
2016,07,26,02,41,14.80
2016,07,26,02,42,14.80
2016,07,26,02,43,14.80
2016,07,26,02,44,14.80
2016,07,26,02,45,14.80
2016,07,26,02,46,14.80
2016,07,26,02,47,14.80
2016,07,26,02,48,14.80
2016,07,26,02,49,14.80
2016,07,26,02,50,14.80
2016,07,26,02,51,14.80
2016,07,26,02,52,14.80
2016,07,26,02,53,14.80
2016,07,26,02,54,14.80
2016,07,26,02,55,14.80
2016,07,26,02,56,14.80
2016,07,26,02,57,14.80
2016,07,26,02,58,14.80
2016,07,26,02,59,14.80
2016,07,26,03,00,14.80
2016,07,26,03,01,14.80
2016,07,26,03,02,14.80
2016,07,26,03,03,14.80
2016,07,26,03,04,14.80
2016,07,26,03,05,14.80
2016,07,26,03,06,14.80
2016,07,26,03,07,14.80
2016,07,26,03,08,14.80
2016,07,26,03,09,14.80
2016,07,26,03,10,14.80
2016,07,26,03,11,14.80
2016,07,26,03,12,14.80
2016,07,26,03,13,14.80
2016,07,26,03,14,14.80
2016,07,26,03,15,14.80
2016,07,26,03,16,14.80
2016,07,26,03,17,14.80
2016,07,26,03,18,14.80
2016,07,26,03,19,14.80
2016,07,26,03,20,14.80
2016,07,26,03,21,14.80
2016,07,26,03,22,14.80
2016,07,26,03,23,14.80
2016,07,26,03,24,14.80
2016,07,26,03,25,14.80
2016,07,26,03,26,14.80
2016,07,26,03,27,14.90
2016,07,26,03,28,14.80
2016,07,26,03,29,14.90
2016,07,26,03,30,14.90
2016,07,26,03,31,14.90
2016,07,26,03,32,14.90
2016,07,26,03,33,14.90
2016,07,26,03,34,14.90
2016,07,26,03,35,14.90
2016,07,26,03,36,14.90
2016,07,26,03,37,14.90
2016,07,26,03,38,14.90
2016,07,26,03,39,14.90
2016,07,26,03,40,15.00
2016,07,26,03,41,15.00
2016,07,26,03,42,15.00
2016,07,26,03,43,15.00
2016,07,26,03,44,15.00
2016,07,26,03,45,15.00
2016,07,26,03,46,15.00
2016,07,26,03,47,15.00
2016,07,26,03,48,15.00
2016,07,26,03,49,15.00
2016,07,26,03,50,15.00
2016,07,26,03,51,15.00
2016,07,26,03,52,15.00
2016,07,26,03,53,15.00
2016,07,26,03,54,15.00
2016,07,26,03,55,15.00
2016,07,26,03,56,15.00
2016,07,26,03,57,15.00
2016,07,26,03,58,15.00
2016,07,26,03,59,15.00
2016,07,26,04,00,15.00
2016,07,26,04,01,15.00
2016,07,26,04,02,15.00
2016,07,26,04,03,15.00
2016,07,26,04,04,15.00
2016,07,26,04,05,15.00
2016,07,26,04,06,15.00
2016,07,26,04,07,15.00
2016,07,26,04,08,15.00
2016,07,26,04,09,15.00
2016,07,26,04,10,15.00
2016,07,26,04,11,15.00
2016,07,26,04,12,15.00
2016,07,26,04,13,15.00
2016,07,26,04,14,15.00
2016,07,26,04,15,15.00
2016,07,26,04,16,15.00
2016,07,26,04,17,15.00
2016,07,26,04,18,15.00
2016,07,26,04,19,15.00
2016,07,26,04,20,15.00
2016,07,26,04,21,15.00
2016,07,26,04,22,15.00
2016,07,26,04,23,15.00
2016,07,26,04,24,15.00
2016,07,26,04,25,15.00
2016,07,26,04,26,15.00
2016,07,26,04,27,15.00
2016,07,26,04,28,15.00
2016,07,26,04,29,15.00
2016,07,26,04,30,15.00
2016,07,26,04,31,14.90
2016,07,26,04,32,14.90
2016,07,26,04,33,14.90
2016,07,26,04,34,14.90
2016,07,26,04,35,14.90
2016,07,26,04,36,14.90
2016,07,26,04,37,14.90
2016,07,26,04,38,14.80
2016,07,26,04,39,14.80
2016,07,26,04,40,14.80
2016,07,26,04,41,14.80
2016,07,26,04,42,14.80
2016,07,26,04,43,14.80
2016,07,26,04,44,14.80
2016,07,26,04,45,14.80
2016,07,26,04,46,14.80
2016,07,26,04,47,14.80
2016,07,26,04,48,14.80
2016,07,26,04,49,14.80
2016,07,26,04,50,14.80
2016,07,26,04,51,14.80
2016,07,26,04,52,14.80
2016,07,26,04,53,14.80
2016,07,26,04,54,14.80
2016,07,26,04,55,14.80
2016,07,26,04,56,14.80
2016,07,26,04,57,14.80
2016,07,26,04,58,14.80
2016,07,26,04,59,14.80
2016,07,26,05,00,14.80
2016,07,26,05,01,14.80
2016,07,26,05,02,14.80
2016,07,26,05,03,14.80
2016,07,26,05,04,14.70
2016,07,26,05,05,14.70
2016,07,26,05,06,14.70
2016,07,26,05,07,14.70
2016,07,26,05,08,14.70
2016,07,26,05,09,14.70
2016,07,26,05,10,14.70
2016,07,26,05,11,14.70
2016,07,26,05,12,14.70
2016,07,26,05,13,14.70
2016,07,26,05,14,14.70
2016,07,26,05,15,14.70
2016,07,26,05,16,14.70
2016,07,26,05,17,14.70
2016,07,26,05,18,14.70
2016,07,26,05,19,14.70
2016,07,26,05,20,14.70
2016,07,26,05,21,14.70
2016,07,26,05,22,14.70
2016,07,26,05,23,14.70
2016,07,26,05,24,14.70
2016,07,26,05,25,14.70
2016,07,26,05,26,14.70
2016,07,26,05,27,14.70
2016,07,26,05,28,14.70
2016,07,26,05,29,14.70
2016,07,26,05,30,14.70
2016,07,26,05,31,14.70
2016,07,26,05,32,14.70
2016,07,26,05,33,14.70
2016,07,26,05,34,14.70
2016,07,26,05,35,14.70
2016,07,26,05,36,14.60
2016,07,26,05,37,14.60
2016,07,26,05,38,14.70
2016,07,26,05,39,14.70
2016,07,26,05,40,14.70
2016,07,26,05,41,14.70
2016,07,26,05,42,14.70
2016,07,26,05,43,14.70
2016,07,26,05,44,14.70
2016,07,26,05,45,14.70
2016,07,26,05,46,14.70
2016,07,26,05,47,14.70
2016,07,26,05,48,14.60
2016,07,26,05,49,14.60
2016,07,26,05,50,14.60
2016,07,26,05,51,14.60
2016,07,26,05,52,14.60
2016,07,26,05,53,14.60
2016,07,26,05,54,14.60
2016,07,26,05,55,14.60
2016,07,26,05,56,14.60
2016,07,26,05,57,14.60
2016,07,26,05,58,14.60
2016,07,26,05,59,14.60
2016,07,26,06,00,14.60
2016,07,26,06,01,14.60
2016,07,26,06,02,14.70
2016,07,26,06,03,14.60
2016,07,26,06,04,14.70
2016,07,26,06,05,14.70
2016,07,26,06,06,14.70
2016,07,26,06,07,14.70
2016,07,26,06,08,14.70
2016,07,26,06,09,14.70
2016,07,26,06,10,14.70
2016,07,26,06,11,14.70
2016,07,26,06,12,14.70
2016,07,26,06,13,14.70
2016,07,26,06,14,14.70
2016,07,26,06,15,14.70
2016,07,26,06,16,14.70
2016,07,26,06,17,14.70
2016,07,26,06,18,14.70
2016,07,26,06,19,14.70
2016,07,26,06,20,14.70
2016,07,26,06,21,14.70
2016,07,26,06,22,14.70
2016,07,26,06,23,14.80
2016,07,26,06,24,14.80
2016,07,26,06,25,14.80
2016,07,26,06,26,14.80
2016,07,26,06,27,14.80
2016,07,26,06,28,14.80
2016,07,26,06,29,14.90
2016,07,26,06,30,14.90
2016,07,26,06,31,14.90
2016,07,26,06,32,14.90
2016,07,26,06,33,14.90
2016,07,26,06,34,15.00
2016,07,26,06,35,15.00
2016,07,26,06,36,15.00
2016,07,26,06,37,15.00
2016,07,26,06,38,15.00
2016,07,26,06,39,15.00
2016,07,26,06,40,15.00
2016,07,26,06,41,15.00
2016,07,26,06,42,15.00
2016,07,26,06,43,15.00
2016,07,26,06,44,15.00
2016,07,26,06,45,15.00
2016,07,26,06,46,15.00
2016,07,26,06,47,15.00
2016,07,26,06,48,15.00
2016,07,26,06,49,15.00
2016,07,26,06,50,15.00
2016,07,26,06,51,15.00
2016,07,26,06,52,15.00
2016,07,26,06,53,15.00
2016,07,26,06,54,15.00
2016,07,26,06,55,15.00
2016,07,26,06,56,15.00
2016,07,26,06,57,15.00
2016,07,26,06,58,15.00
2016,07,26,06,59,15.00
2016,07,26,07,00,15.00
2016,07,26,07,01,15.00
2016,07,26,07,02,15.00
2016,07,26,07,03,15.00
2016,07,26,07,04,15.00
2016,07,26,07,05,15.00
2016,07,26,07,06,15.00
2016,07,26,07,07,15.00
2016,07,26,07,08,15.00
2016,07,26,07,09,15.00
2016,07,26,07,10,15.00
2016,07,26,07,11,15.00
2016,07,26,07,12,15.00
2016,07,26,07,13,15.00
2016,07,26,07,14,15.00
2016,07,26,07,15,15.00
2016,07,26,07,16,15.00
2016,07,26,07,17,15.00
2016,07,26,07,18,15.00
2016,07,26,07,19,15.00
2016,07,26,07,20,15.00
2016,07,26,07,21,15.00
2016,07,26,07,22,15.00
2016,07,26,07,23,15.00
2016,07,26,07,24,15.00
2016,07,26,07,25,15.10
2016,07,26,07,26,15.10
2016,07,26,07,27,15.10
2016,07,26,07,28,15.10
2016,07,26,07,29,15.10
2016,07,26,07,30,15.20
2016,07,26,07,31,15.20
2016,07,26,07,32,15.20
2016,07,26,07,33,15.20
2016,07,26,07,34,15.20
2016,07,26,07,35,15.30
2016,07,26,07,36,15.30
2016,07,26,07,37,15.30
2016,07,26,07,38,15.30
2016,07,26,07,39,15.30
2016,07,26,07,40,15.40
2016,07,26,07,41,15.40
2016,07,26,07,42,15.40
2016,07,26,07,43,15.40
2016,07,26,07,44,15.50
2016,07,26,07,45,15.50
2016,07,26,07,46,15.60
2016,07,26,07,47,15.60
2016,07,26,07,48,15.70
2016,07,26,07,49,15.70
2016,07,26,07,50,15.70
2016,07,26,07,51,15.70
2016,07,26,07,52,15.80
2016,07,26,07,53,15.80
2016,07,26,07,54,15.80
2016,07,26,07,55,15.90
2016,07,26,07,56,15.90
2016,07,26,07,57,15.90
2016,07,26,07,58,15.90
2016,07,26,07,59,16.00
2016,07,26,08,00,16.20
2016,07,26,08,01,16.30
2016,07,26,08,02,16.40
2016,07,26,08,03,16.50
2016,07,26,08,04,16.60
2016,07,26,08,05,16.70
2016,07,26,08,06,16.80
2016,07,26,08,07,16.90
2016,07,26,08,08,17.00
2016,07,26,08,09,17.10
2016,07,26,08,10,17.20
2016,07,26,08,11,17.30
2016,07,26,08,12,17.40
2016,07,26,08,13,17.50
2016,07,26,08,14,17.60
2016,07,26,08,15,17.60
2016,07,26,08,16,17.60
2016,07,26,08,17,17.70
2016,07,26,08,18,17.70
2016,07,26,08,19,17.80
2016,07,26,08,20,17.80
2016,07,26,08,21,17.80
2016,07,26,08,22,17.90
2016,07,26,08,23,18.00
2016,07,26,08,24,18.00
2016,07,26,08,25,18.10
2016,07,26,08,26,18.10
2016,07,26,08,27,18.20
2016,07,26,08,28,18.20
2016,07,26,08,29,18.30
2016,07,26,08,30,18.30
2016,07,26,08,31,18.30
2016,07,26,08,32,18.40
2016,07,26,08,33,18.40
2016,07,26,08,34,18.40
2016,07,26,08,35,18.40
2016,07,26,08,36,18.40
2016,07,26,08,37,18.40
2016,07,26,08,38,18.40
2016,07,26,08,39,18.40
2016,07,26,08,40,18.40
2016,07,26,08,41,18.40
2016,07,26,08,42,18.40
2016,07,26,08,43,18.40
2016,07,26,08,44,18.40
2016,07,26,08,45,18.40
2016,07,26,08,46,18.40
2016,07,26,08,47,18.40
2016,07,26,08,48,18.30
2016,07,26,08,49,18.30
2016,07,26,08,50,18.30
2016,07,26,08,51,18.30
2016,07,26,08,52,18.30
2016,07,26,08,53,18.30
2016,07,26,08,54,18.20
2016,07,26,08,55,18.30
2016,07,26,08,56,18.30
2016,07,26,08,57,18.20
2016,07,26,08,58,18.20
2016,07,26,08,59,18.20
2016,07,26,09,00,18.20
2016,07,26,09,01,18.20
2016,07,26,09,02,18.20
2016,07,26,09,03,18.20
2016,07,26,09,04,18.30
2016,07,26,09,05,18.30
2016,07,26,09,06,18.30
2016,07,26,09,07,18.40
2016,07,26,09,08,18.40
2016,07,26,09,09,18.50
2016,07,26,09,10,18.60
2016,07,26,09,11,18.60
2016,07,26,09,12,18.70
2016,07,26,09,13,18.80
2016,07,26,09,14,18.80
2016,07,26,09,15,18.90
2016,07,26,09,16,19.00
2016,07,26,09,17,19.10
2016,07,26,09,18,19.10
2016,07,26,09,19,19.10
2016,07,26,09,20,19.20
2016,07,26,09,21,19.20
2016,07,26,09,22,19.20
2016,07,26,09,23,19.30
2016,07,26,09,24,19.30
2016,07,26,09,25,19.40
2016,07,26,09,26,19.30
2016,07,26,09,27,19.40
2016,07,26,09,28,19.40
2016,07,26,09,29,19.50
2016,07,26,09,30,19.60
2016,07,26,09,31,19.60
2016,07,26,09,32,19.60
2016,07,26,09,33,19.60
2016,07,26,09,34,19.60
2016,07,26,09,35,19.70
2016,07,26,09,36,19.80
2016,07,26,09,37,19.90
2016,07,26,09,38,19.90
2016,07,26,09,39,19.90
2016,07,26,09,40,20.00
2016,07,26,09,41,20.00
2016,07,26,09,42,20.10
2016,07,26,09,43,20.10
2016,07,26,09,44,20.10
2016,07,26,09,45,20.20
2016,07,26,09,46,20.20
2016,07,26,09,47,20.30
2016,07,26,09,48,20.40
2016,07,26,09,49,20.50
2016,07,26,09,50,20.60
2016,07,26,09,51,20.60
2016,07,26,09,52,20.70
2016,07,26,09,53,20.60
2016,07,26,09,54,20.60
2016,07,26,09,55,20.60
2016,07,26,09,56,20.70
2016,07,26,09,57,20.70
2016,07,26,09,58,20.70
2016,07,26,09,59,20.70
2016,07,26,10,00,20.80
2016,07,26,10,01,20.90
2016,07,26,10,02,21.00
2016,07,26,10,03,21.10
2016,07,26,10,04,21.10
2016,07,26,10,05,21.20
2016,07,26,10,06,21.20
2016,07,26,10,07,21.30
2016,07,26,10,08,21.30
2016,07,26,10,09,21.40
2016,07,26,10,10,21.50
2016,07,26,10,11,21.50
2016,07,26,10,12,21.40
2016,07,26,10,13,21.40
2016,07,26,10,14,21.20
2016,07,26,10,15,21.00
2016,07,26,10,16,20.90
2016,07,26,10,17,20.90
2016,07,26,10,18,20.90
2016,07,26,10,19,20.90
2016,07,26,10,20,21.00
2016,07,26,10,21,21.00
2016,07,26,10,22,21.10
2016,07,26,10,23,21.10
2016,07,26,10,24,21.10
2016,07,26,10,25,21.10
2016,07,26,10,26,21.10
2016,07,26,10,27,21.10
2016,07,26,10,28,21.10
2016,07,26,10,29,21.10
2016,07,26,10,30,21.10
2016,07,26,10,31,21.10
2016,07,26,10,32,21.00
2016,07,26,10,33,21.00
2016,07,26,10,34,21.00
2016,07,26,10,35,20.90
2016,07,26,10,36,21.00
2016,07,26,10,37,21.00
2016,07,26,10,38,20.90
2016,07,26,10,39,20.90
2016,07,26,10,40,20.90
2016,07,26,10,41,21.00
2016,07,26,10,42,21.10
2016,07,26,10,43,21.10
2016,07,26,10,44,21.10
2016,07,26,10,45,21.10
2016,07,26,10,46,21.10
2016,07,26,10,47,21.10
2016,07,26,10,48,21.20
2016,07,26,10,49,21.20
2016,07,26,10,50,21.10
2016,07,26,10,51,21.10
2016,07,26,10,52,21.10
2016,07,26,10,53,21.20
2016,07,26,10,54,21.30
2016,07,26,10,55,21.30
2016,07,26,10,56,21.50
2016,07,26,10,57,21.60
2016,07,26,10,58,21.80
2016,07,26,10,59,21.90
2016,07,26,11,00,21.90
2016,07,26,11,01,21.90
2016,07,26,11,02,22.00
2016,07,26,11,03,22.00
2016,07,26,11,04,22.00
2016,07,26,11,05,22.00
2016,07,26,11,06,21.90
2016,07,26,11,07,21.90
2016,07,26,11,08,21.80
2016,07,26,11,09,21.80
2016,07,26,11,10,21.80
2016,07,26,11,11,21.80
2016,07,26,11,12,21.80
2016,07,26,11,13,21.80
2016,07,26,11,14,21.80
2016,07,26,11,15,21.50
2016,07,26,11,16,21.40
2016,07,26,11,17,21.20
2016,07,26,11,18,21.10
2016,07,26,11,19,21.00
2016,07,26,11,20,20.90
2016,07,26,11,21,21.00
2016,07,26,11,22,21.00
2016,07,26,11,23,21.00
2016,07,26,11,24,20.90
2016,07,26,11,25,20.80
2016,07,26,11,26,20.70
2016,07,26,11,27,20.70
2016,07,26,11,28,20.70
2016,07,26,11,29,20.60
2016,07,26,11,30,20.60
2016,07,26,11,31,20.60
2016,07,26,11,32,20.60
2016,07,26,11,33,20.50
2016,07,26,11,34,20.40
2016,07,26,11,35,20.30
2016,07,26,11,36,20.30
2016,07,26,11,37,20.40
2016,07,26,11,38,20.50
2016,07,26,11,39,20.60
2016,07,26,11,40,20.70
2016,07,26,11,41,20.80
2016,07,26,11,42,20.90
2016,07,26,11,43,21.00
2016,07,26,11,44,21.00
2016,07,26,11,45,20.90
2016,07,26,11,46,20.80
2016,07,26,11,47,20.90
2016,07,26,11,48,21.00
2016,07,26,11,49,21.00
2016,07,26,11,50,21.00
2016,07,26,11,51,21.00
2016,07,26,11,52,21.10
2016,07,26,11,53,21.10
2016,07,26,11,54,21.20
2016,07,26,11,55,21.20
2016,07,26,11,56,21.30
2016,07,26,11,57,21.30
2016,07,26,11,58,21.40
2016,07,26,11,59,21.40
2016,07,26,12,00,21.40
2016,07,26,12,01,21.30
2016,07,26,12,02,21.30
2016,07,26,12,03,21.30
2016,07,26,12,04,21.40
2016,07,26,12,05,21.40
2016,07,26,12,06,21.40
2016,07,26,12,07,21.40
2016,07,26,12,08,21.40
2016,07,26,12,09,21.50
2016,07,26,12,10,21.50
2016,07,26,12,11,21.40
2016,07,26,12,12,21.30
2016,07,26,12,13,21.20
2016,07,26,12,14,21.20
2016,07,26,12,15,21.30
2016,07,26,12,16,21.20
2016,07,26,12,17,21.10
2016,07,26,12,18,21.10
2016,07,26,12,19,21.00
2016,07,26,12,20,21.00
2016,07,26,12,21,20.90
2016,07,26,12,22,20.80
2016,07,26,12,23,20.80
2016,07,26,12,24,20.80
2016,07,26,12,25,20.90
2016,07,26,12,26,20.90
2016,07,26,12,27,20.90
2016,07,26,12,28,20.90
2016,07,26,12,29,20.80
2016,07,26,12,30,20.90
2016,07,26,12,31,21.00
2016,07,26,12,32,21.10
2016,07,26,12,33,21.30
2016,07,26,12,34,21.50
2016,07,26,12,35,21.60
2016,07,26,12,36,21.70
2016,07,26,12,37,21.60
2016,07,26,12,38,21.50
2016,07,26,12,39,21.50
2016,07,26,12,40,21.50
2016,07,26,12,41,21.40
2016,07,26,12,42,21.40
2016,07,26,12,43,21.30
2016,07,26,12,44,21.30
2016,07,26,12,45,21.10
2016,07,26,12,46,21.00
2016,07,26,12,47,20.90
2016,07,26,12,48,20.80
2016,07,26,12,49,20.80
2016,07,26,12,50,20.70
2016,07,26,12,51,20.80
2016,07,26,12,52,20.80
2016,07,26,12,53,20.80
2016,07,26,12,54,20.80
2016,07,26,12,55,20.80
2016,07,26,12,56,20.90
2016,07,26,12,57,21.00
2016,07,26,12,58,21.00
2016,07,26,12,59,21.00
2016,07,26,13,00,21.00
2016,07,26,13,01,21.10
2016,07,26,13,02,21.20
2016,07,26,13,03,21.30
2016,07,26,13,04,21.40
2016,07,26,13,05,21.50
2016,07,26,13,06,21.70
2016,07,26,13,07,21.80
2016,07,26,13,08,21.90
2016,07,26,13,09,22.00
2016,07,26,13,10,22.10
2016,07,26,13,11,22.10
2016,07,26,13,12,22.10
2016,07,26,13,13,22.10
2016,07,26,13,14,22.10
2016,07,26,13,15,22.10
2016,07,26,13,16,22.30
2016,07,26,13,17,22.40
2016,07,26,13,18,22.40
2016,07,26,13,19,22.40
2016,07,26,13,20,22.50
2016,07,26,13,21,22.60
2016,07,26,13,22,22.70
2016,07,26,13,23,22.90
2016,07,26,13,24,22.90
2016,07,26,13,25,22.90
2016,07,26,13,26,22.90
2016,07,26,13,27,22.80
2016,07,26,13,28,22.70
2016,07,26,13,29,22.60
2016,07,26,13,30,22.50
2016,07,26,13,31,22.40
2016,07,26,13,32,22.40
2016,07,26,13,33,22.40
2016,07,26,13,34,22.50
2016,07,26,13,35,22.40
2016,07,26,13,36,22.40
2016,07,26,13,37,22.50
2016,07,26,13,38,22.60
2016,07,26,13,39,22.60
2016,07,26,13,40,22.70
2016,07,26,13,41,22.70
2016,07,26,13,42,22.70
2016,07,26,13,43,22.70
2016,07,26,13,44,22.70
2016,07,26,13,45,22.70
2016,07,26,13,46,22.80
2016,07,26,13,47,22.80
2016,07,26,13,48,22.80
2016,07,26,13,49,22.80
2016,07,26,13,50,22.80
2016,07,26,13,51,22.70
2016,07,26,13,52,22.60
2016,07,26,13,53,22.60
2016,07,26,13,54,22.60
2016,07,26,13,55,22.60
2016,07,26,13,56,22.50
2016,07,26,13,57,22.50
2016,07,26,13,58,22.60
2016,07,26,13,59,22.60
2016,07,26,14,00,22.60
2016,07,26,14,01,22.50
2016,07,26,14,02,22.50
2016,07,26,14,03,22.40
2016,07,26,14,04,22.40
2016,07,26,14,05,22.30
2016,07,26,14,06,22.10
2016,07,26,14,07,21.90
2016,07,26,14,08,21.80
2016,07,26,14,09,21.70
2016,07,26,14,10,21.60
2016,07,26,14,11,21.50
2016,07,26,14,12,21.50
2016,07,26,14,13,21.40
2016,07,26,14,14,21.40
2016,07,26,14,15,21.40
2016,07,26,14,16,21.50
2016,07,26,14,17,21.50
2016,07,26,14,18,21.60
2016,07,26,14,19,21.60
2016,07,26,14,20,21.70
2016,07,26,14,21,21.80
2016,07,26,14,22,21.80
2016,07,26,14,23,21.90
2016,07,26,14,24,21.90
2016,07,26,14,25,21.90
2016,07,26,14,26,21.80
2016,07,26,14,27,21.80
2016,07,26,14,28,21.80
2016,07,26,14,29,21.80
2016,07,26,14,30,21.80
2016,07,26,14,31,21.80
2016,07,26,14,32,21.80
2016,07,26,14,33,21.70
2016,07,26,14,34,21.70
2016,07,26,14,35,21.60
2016,07,26,14,36,21.60
2016,07,26,14,37,21.60
2016,07,26,14,38,21.70
2016,07,26,14,39,21.70
2016,07,26,14,40,21.80
2016,07,26,14,41,21.90
2016,07,26,14,42,22.10
2016,07,26,14,43,22.20
2016,07,26,14,44,22.30
2016,07,26,14,45,22.30
2016,07,26,14,46,22.40
2016,07,26,14,47,22.50
2016,07,26,14,48,22.60
2016,07,26,14,49,22.50
2016,07,26,14,50,22.50
2016,07,26,14,51,22.50
2016,07,26,14,52,22.50
2016,07,26,14,53,22.40
2016,07,26,14,54,22.30
2016,07,26,14,55,22.20
2016,07,26,14,56,22.10
2016,07,26,14,57,21.90
2016,07,26,14,58,21.80
2016,07,26,14,59,21.70
2016,07,26,15,00,21.60
2016,07,26,15,01,21.50
2016,07,26,15,02,21.40
2016,07,26,15,03,21.40
2016,07,26,15,04,21.30
2016,07,26,15,05,21.30
2016,07,26,15,06,21.30
2016,07,26,15,07,21.40
2016,07,26,15,08,21.40
2016,07,26,15,09,21.30
2016,07,26,15,10,21.30
2016,07,26,15,11,21.30
2016,07,26,15,12,21.40
2016,07,26,15,13,21.30
2016,07,26,15,14,21.40
2016,07,26,15,15,21.40
2016,07,26,15,16,21.50
2016,07,26,15,17,21.60
2016,07,26,15,18,21.60
2016,07,26,15,19,21.60
2016,07,26,15,20,21.70
2016,07,26,15,21,21.90
2016,07,26,15,22,22.00
2016,07,26,15,23,22.00
2016,07,26,15,24,22.00
2016,07,26,15,25,22.00
2016,07,26,15,26,22.00
2016,07,26,15,27,22.00
2016,07,26,15,28,22.10
2016,07,26,15,29,22.10
2016,07,26,15,30,22.10
2016,07,26,15,31,22.10
2016,07,26,15,32,22.10
2016,07,26,15,33,22.20
2016,07,26,15,34,22.20
2016,07,26,15,35,22.40
2016,07,26,15,36,22.40
2016,07,26,15,37,22.40
2016,07,26,15,38,22.30
2016,07,26,15,39,22.20
2016,07,26,15,40,22.20
2016,07,26,15,41,22.10
2016,07,26,15,42,22.00
2016,07,26,15,43,21.90
2016,07,26,15,44,21.90
2016,07,26,15,45,21.90
2016,07,26,15,46,21.90
2016,07,26,15,47,22.00
2016,07,26,15,48,21.90
2016,07,26,15,49,22.00
2016,07,26,15,50,22.20
2016,07,26,15,51,22.30
2016,07,26,15,52,22.40
2016,07,26,15,53,22.40
2016,07,26,15,54,22.40
2016,07,26,15,55,22.50
2016,07,26,15,56,22.40
2016,07,26,15,57,22.30
2016,07,26,15,58,22.10
2016,07,26,15,59,21.90
2016,07,26,16,00,21.80
2016,07,26,16,01,21.80
2016,07,26,16,02,21.80
2016,07,26,16,03,21.80
2016,07,26,16,04,21.60
2016,07,26,16,05,21.60
2016,07,26,16,06,21.50
2016,07,26,16,07,21.50
2016,07,26,16,08,21.50
2016,07,26,16,09,21.40
2016,07,26,16,10,21.50
2016,07,26,16,11,21.50
2016,07,26,16,12,21.50
2016,07,26,16,13,21.50
2016,07,26,16,14,21.50
2016,07,26,16,15,21.40
2016,07,26,16,16,21.40
2016,07,26,16,17,21.40
2016,07,26,16,18,21.30
2016,07,26,16,19,21.30
2016,07,26,16,20,21.20
2016,07,26,16,21,21.20
2016,07,26,16,22,21.20
2016,07,26,16,23,21.10
2016,07,26,16,24,21.20
2016,07,26,16,25,21.20
2016,07,26,16,26,21.30
2016,07,26,16,27,21.40
2016,07,26,16,28,21.50
2016,07,26,16,29,21.60
2016,07,26,16,30,21.80
2016,07,26,16,31,21.90
2016,07,26,16,32,22.10
2016,07,26,16,33,22.20
2016,07,26,16,34,22.30
2016,07,26,16,35,22.40
2016,07,26,16,36,22.50
2016,07,26,16,37,22.60
2016,07,26,16,38,22.70
2016,07,26,16,39,22.80
2016,07,26,16,40,22.90
2016,07,26,16,41,22.90
2016,07,26,16,42,23.00
2016,07,26,16,43,23.00
2016,07,26,16,44,23.00
2016,07,26,16,45,23.00
2016,07,26,16,46,23.00
2016,07,26,16,47,23.00
2016,07,26,16,48,22.90
2016,07,26,16,49,22.80
2016,07,26,16,50,22.80
2016,07,26,16,51,22.90
2016,07,26,16,52,23.00
2016,07,26,16,53,23.10
2016,07,26,16,54,23.20
2016,07,26,16,55,23.20
2016,07,26,16,56,23.20
2016,07,26,16,57,23.30
2016,07,26,16,58,23.20
2016,07,26,16,59,23.20
2016,07,26,17,00,23.20
2016,07,26,17,01,23.30
2016,07,26,17,02,23.30
2016,07,26,17,03,23.20
2016,07,26,17,04,23.10
2016,07,26,17,05,23.10
2016,07,26,17,06,23.00
2016,07,26,17,07,23.00
2016,07,26,17,08,22.90
2016,07,26,17,09,22.90
2016,07,26,17,10,22.90
2016,07,26,17,11,22.90
2016,07,26,17,12,22.90
2016,07,26,17,13,22.90
2016,07,26,17,14,22.90
2016,07,26,17,15,23.00
2016,07,26,17,16,23.00
2016,07,26,17,17,23.10
2016,07,26,17,18,23.10
2016,07,26,17,19,23.10